Saguache, CO

7:01 AM MDT on April 26, 2017 (GMT -0600)
Saguache

Weather History for K04V - November, 2012

Change the Weather History Date:

Monday, November 12, 2012

  Actual Average (KALS) Record (KALS)
Temperature  
Mean Temperature 20 °F -  
Max Temperature 33 °F 49 °F 65 °F (1989)
Min Temperature 8 °F 15 °F -5 °F (2012)
Degree Days  
Heating Degree Days 44    
Moisture  
Dew Point 3 °F    
Average Humidity 45    
Maximum Humidity 67    
Minimum Humidity 22    
Precipitation  
Precipitation 0.00 in - - ()
Sea Level Pressure  
Sea Level Pressure 30.38 in    
Wind  
Wind Speed 9 mph (NNW)    
Max Wind Speed 23 mph    
Max Gust Speed 30 mph    
Visibility 10 miles    
Events      
Averages and records for this station are not official NWS values.
T = Trace of Precipitation, MM = Missing Value Source: NWS Daily Summary

Daily Weather History Graph

Daily Weather History Graph

Search for Another Location

Airport or City:

Trip Planner

Search our weather history database for the weather conditions in past years. The results will help you decide how hot, cold, wet, or windy it might be!

Date:

Astronomy

Nov. 12, 2012 Rise Set
Actual Time 6:42 AM MST 4:54 PM MST
Civil Twilight 6:14 AM MST 5:22 PM MST
Nautical Twilight 5:43 AM MST 5:54 PM MST
Astronomical Twilight 5:12 AM MST 6:25 PM MST
Moon 5:12 AM MST (11/12) 4:01 PM MST (11/12)
Length of Visible Light 11h 07m
Length of Day
10h 11m
Waning Crescent, 2% of the Moon is Illuminated
Nov 12
Waning Crescent
Nov 13
New
Nov 20
First Quarter
Nov 28
Full
Dec 6
Last Quarter

Hourly Weather History & Observations

Time (MST) Temp. Windchill Dew Point Humidity Pressure Visibility Wind Dir Wind Speed Gust Speed Precip Events Conditions
12:15 AM 17.6 °F 1.7 °F 1.4 °F 49% 30.28 in 10.0 mi NW 18.4 mph - N/A   Clear
12:35 AM 19.4 °F 2.5 °F 1.4 °F 46% 30.27 in 10.0 mi NW 23.0 mph 29.9 mph N/A   Clear
12:54 AM 19.4 °F 3.2 °F 1.4 °F 46% 30.27 in 10.0 mi NNW 20.7 mph 29.9 mph N/A   Clear
1:15 AM 17.6 °F 0.5 °F -0.4 °F 45% 30.27 in 10.0 mi NNW 21.9 mph 26.5 mph N/A   Clear
1:35 AM 17.6 °F 3.2 °F -0.4 °F 45% 30.29 in 10.0 mi North 15.0 mph - N/A   Clear
1:55 AM 17.6 °F 8.2 °F 1.4 °F 49% 30.31 in 10.0 mi NNW 6.9 mph 11.5 mph N/A   Clear
2:15 AM 17.6 °F 10.7 °F 1.4 °F 49% 30.33 in 10.0 mi North 4.6 mph - N/A   Clear
2:35 AM 17.6 °F 12.3 °F 1.4 °F 49% 30.34 in 10.0 mi North 3.5 mph - N/A   Clear
2:55 AM 14.0 °F 2.9 °F 1.4 °F 57% 30.34 in 10.0 mi North 8.1 mph - N/A   Clear
3:15 AM 15.8 °F 5.1 °F 1.4 °F 53% 30.34 in 10.0 mi North 8.1 mph - N/A   Clear
3:35 AM 15.8 °F 6.1 °F 1.4 °F 53% 30.35 in 10.0 mi North 6.9 mph - N/A   Clear
3:55 AM 14.0 °F 2.9 °F 1.4 °F 57% 30.35 in 10.0 mi North 8.1 mph - N/A   Clear
4:14 AM 12.2 °F 4.3 °F 1.4 °F 62% 30.36 in 10.0 mi NNW 4.6 mph - N/A   Clear
4:35 AM 10.4 °F -0.4 °F 1.4 °F 67% 30.37 in 10.0 mi North 6.9 mph - N/A   Clear
4:55 AM 10.4 °F 2.2 °F 1.4 °F 67% 30.38 in 10.0 mi NW 4.6 mph - N/A   Clear
5:15 AM 12.2 °F -0.2 °F 3.2 °F 67% 30.39 in 10.0 mi West 9.2 mph - N/A   Clear
5:35 AM 12.2 °F -1.0 °F 3.2 °F 67% 30.40 in 10.0 mi NW 10.4 mph - N/A   Clear
5:55 AM 10.4 °F 0.8 °F 1.4 °F 67% 30.40 in 10.0 mi WNW 5.8 mph - N/A   Clear
6:15 AM 8.6 °F -2.6 °F -0.4 °F 67% 30.41 in 10.0 mi NW 6.9 mph - N/A   Clear
6:35 AM 8.6 °F -5.5 °F -0.4 °F 67% 30.41 in 10.0 mi NW 10.4 mph - N/A   Clear
6:55 AM 10.4 °F 0.8 °F 1.4 °F 67% 30.42 in 10.0 mi NNW 5.8 mph - N/A   Clear
7:15 AM 12.2 °F - 1.4 °F 62% 30.43 in 10.0 mi Calm Calm - N/A   Clear
7:34 AM 12.2 °F - 1.4 °F 62% 30.44 in 10.0 mi Calm Calm - N/A   Clear
7:55 AM 15.8 °F - 1.4 °F 53% 30.45 in 10.0 mi Calm Calm - N/A   Clear
8:15 AM 17.6 °F - 3.2 °F 53% 30.46 in 10.0 mi Calm Calm - N/A   Clear
8:55 AM 21.2 °F 16.4 °F 3.2 °F 46% 30.46 in 10.0 mi South 3.5 mph - N/A   Clear
9:15 AM 23.0 °F 17.0 °F 3.2 °F 43% 30.46 in 10.0 mi SSE 4.6 mph - N/A   Clear
9:34 AM 23.0 °F 17.0 °F 1.4 °F 39% 30.46 in 10.0 mi SE 4.6 mph - N/A   Clear
9:55 AM 24.8 °F 17.9 °F -0.4 °F 34% 30.46 in 10.0 mi ESE 5.8 mph - N/A   Clear
10:15 AM 24.8 °F 17.9 °F -0.4 °F 34% 30.46 in 10.0 mi SE 5.8 mph - N/A   Clear
10:35 AM 26.6 °F 22.6 °F -0.4 °F 31% 30.46 in 10.0 mi SE 3.5 mph - N/A   Clear
10:54 AM 26.6 °F 20.0 °F 1.4 °F 34% 30.46 in 10.0 mi SSE 5.8 mph - N/A   Clear
11:14 AM 28.4 °F 21.2 °F -0.4 °F 29% 30.45 in 10.0 mi SSE 6.9 mph - N/A   Clear
11:35 AM 28.4 °F 21.2 °F -0.4 °F 29% 30.44 in 10.0 mi SSE 6.9 mph - N/A   Clear
11:55 AM 30.2 °F 25.4 °F -0.4 °F 27% 30.43 in 10.0 mi SW 4.6 mph - N/A   Clear
12:15 PM 33.8 °F 27.7 °F 1.4 °F 25% 30.42 in 10.0 mi South 6.9 mph - N/A   Clear
12:35 PM 33.8 °F 30.8 °F 1.4 °F 25% 30.41 in 10.0 mi SSW 3.5 mph - N/A   Clear
12:55 PM 33.8 °F - -0.4 °F 23% 30.41 in 10.0 mi Calm Calm - N/A   Clear
1:14 PM 33.8 °F - -0.4 °F 23% 30.40 in 10.0 mi Calm Calm - N/A   Clear
1:35 PM 33.8 °F 29.6 °F -0.4 °F 23% 30.40 in 10.0 mi SSE 4.6 mph - N/A   Clear
1:55 PM 33.8 °F 28.6 °F -0.4 °F 23% 30.40 in 10.0 mi SSE 5.8 mph - N/A   Clear
2:15 PM 33.8 °F 29.6 °F -0.4 °F 23% 30.40 in 10.0 mi SSE 4.6 mph - N/A   Clear
2:35 PM 33.8 °F - -2.2 °F 22% 30.40 in 10.0 mi Calm Calm - N/A   Clear
2:55 PM 33.8 °F - -0.4 °F 23% 30.39 in 10.0 mi Calm Calm - N/A   Clear
3:35 PM 33.8 °F - -0.4 °F 23% 30.39 in 10.0 mi Calm Calm - N/A   Clear
3:55 PM 33.8 °F - -0.4 °F 23% 30.38 in 10.0 mi Calm Calm - N/A   Clear
4:15 PM 33.8 °F - -0.4 °F 23% 30.38 in 10.0 mi Calm Calm - N/A   Clear
4:35 PM 33.8 °F - 1.4 °F 25% 30.38 in 10.0 mi Calm Calm - N/A   Clear
4:55 PM 28.4 °F 22.2 °F 5.0 °F 37% 30.37 in 10.0 mi NNE 5.8 mph - N/A   Clear
5:14 PM 26.6 °F 16.8 °F 6.8 °F 43% 30.37 in 10.0 mi NNE 10.4 mph - N/A   Clear
5:35 PM 26.6 °F 16.8 °F 6.8 °F 43% 30.37 in 10.0 mi NNE 10.4 mph - N/A   Clear
5:55 PM 26.6 °F 17.5 °F 6.8 °F 43% 30.38 in 10.0 mi North 9.2 mph - N/A   Clear
6:15 PM 26.6 °F 17.5 °F 5.0 °F 40% 30.38 in 10.0 mi North 9.2 mph - N/A   Clear
6:35 PM 24.8 °F 16.9 °F 6.8 °F 46% 30.38 in 10.0 mi North 6.9 mph - N/A   Clear
6:55 PM 24.8 °F 20.5 °F 6.8 °F 46% 30.38 in 10.0 mi NNW 3.5 mph - N/A   Clear
7:14 PM 23.0 °F 15.8 °F 10.4 °F 59% 30.37 in 10.0 mi WNW 5.8 mph - N/A   Clear
7:35 PM 23.0 °F 14.7 °F 8.6 °F 54% 30.38 in 10.0 mi NNW 6.9 mph - N/A   Clear
7:55 PM 24.8 °F 19.1 °F 8.6 °F 50% 30.38 in 10.0 mi North 4.6 mph - N/A   Clear
8:14 PM 23.0 °F 18.4 °F 10.4 °F 59% 30.38 in 10.0 mi NW 3.5 mph - N/A   Clear
8:35 PM 24.8 °F 15.3 °F 8.6 °F 50% 30.38 in 10.0 mi NNW 9.2 mph - N/A   Clear
8:54 PM 23.0 °F 13.9 °F 8.6 °F 54% 30.38 in 10.0 mi NNW 8.1 mph - N/A   Clear
9:15 PM 23.0 °F 13.9 °F 8.6 °F 54% 30.37 in 10.0 mi NW 8.1 mph - N/A   Clear
9:34 PM 23.0 °F 11.1 °F 10.4 °F 59% 30.37 in 10.0 mi NW 12.7 mph - N/A   Clear
9:55 PM 24.8 °F 12.9 °F 10.4 °F 54% 30.36 in 10.0 mi NNW 13.8 mph - N/A   Clear
10:14 PM 24.8 °F 14.6 °F 10.4 °F 54% 30.36 in 10.0 mi NNW 10.4 mph - N/A   Scattered Clouds
10:35 PM 24.8 °F 15.3 °F 10.4 °F 54% 30.37 in 10.0 mi NW 9.2 mph - N/A   Mostly Cloudy
10:55 PM 24.8 °F 15.3 °F 10.4 °F 54% 30.37 in 10.0 mi NW 9.2 mph - N/A   Overcast
11:15 PM 24.8 °F 15.3 °F 10.4 °F 54% 30.36 in 10.0 mi NW 9.2 mph - N/A   Overcast
11:35 PM 24.8 °F 14.6 °F 8.6 °F 50% 30.36 in 10.0 mi NNW 10.4 mph - N/A   Overcast
11:55 PM 24.8 °F 14.6 °F 8.6 °F 50% 30.36 in 10.0 mi NW 10.4 mph - N/A   Overcast